Volver al catálogo

STARLINK-37832

ActivoComunicacionesSSO
NORAD 100231·PAYLOAD·🇺🇸 United States

Lanzado Aug 4, 2026 desde Vandenberg Space Force Base

Loading…

Próximos Pases (próximas 24 horas)

TLE

ActualizadoSource: Space-Track

Época: Sep 14, 2026, 22:58 UTC

1 A0231U 26177U   26257.95756805  .00068177  00000-0  12433-2 0  9990
2 A0231  97.2834 308.8742 0001424 103.6415 256.4995 15.49215192  7640

Sigue STARLINK-37832 en tiempo real con AllMySat

Download on the App Store